{"data":{"norad_id":67681,"epoch":"2026-09-20T14:12:32.795136Z","epoch_age_seconds":81866,"freshness":"FRESH","line1":"1 67681U 26023H   26263.59204624  .00005627  00000+0  21409-3 0  9990","line2":"2 67681  96.6206 316.8644 0021950 136.8943 223.4021 15.26863321 34549","mean_motion":15.26863321,"eccentricity":0.002195,"inclination_deg":96.6206,"raan_deg":316.8644,"arg_perigee_deg":136.8943,"mean_anomaly_deg":223.4021,"bstar":0.00021409,"rev_number":3454,"period_min":94.310995633643,"perigee_km":470.13091436984,"apogee_km":500.26094593321,"semimajor_km":6863.3329301515,"source":"CELESTRAK","updated_at":"2026-09-21T09:00:16.778018Z"}}